Tracking 25709 objects as of 24-May-2022
HD Live streaming from Space Station
objects crossing your sky now

COSMOS 2256

Track COSMOS 2256 now!
10-day predictions
COSMOS 2256 is classified as:


NORAD ID: 22691
Int'l Code: 1993-038E
Perigee: 1,407.8 km
Apogee: 1,420.3 km
Inclination: 82.6 °
Period: 113.9 minutes
Semi major axis: 7785 km
RCS: 1.14 m2 (large)
Launch date: June 24, 1993
Source: Commonwealth of Independent States (former USSR) (CIS)
Launch site: PLESETSK MISSILE AND SPACE COMPLEX (PKMTR)
aabbcc
Your satellite tracking list
Your tracking list is empty




NASA's NSSDC Master Catalog

Two Line Element Set (TLE):
1 22691U 93038E   22144.12554623  .00000013  00000-0  14886-4 0  9999
2 22691  82.5756  82.4823 0008010 116.7807 254.7469 12.63888260334608
Source of the keplerian elements: AFSPC